{"data":{"norad_id":42965,"epoch":"2026-05-24T09:34:51.739680Z","epoch_age_seconds":126654,"freshness":"FRESH","line1":"1 42965U 17062A   26144.39920995 -.00000356  00000+0  00000+0 0  9998","line2":"2 42965  40.1220 343.7839 0745359 271.4032 269.2555  1.00258100 31562","mean_motion":1.002581,"eccentricity":0.0745359,"inclination_deg":40.122,"raan_deg":343.7839,"arg_perigee_deg":271.4032,"mean_anomaly_deg":269.2555,"bstar":0,"rev_number":3156,"period_min":1436.292927953,"perigee_km":32647.359572639,"apogee_km":38933.504027056,"semimajor_km":42168.568799847,"source":"CELESTRAK","updated_at":"2026-05-25T13:38:24.343721Z"}}